sat.trackr.live / text

‹ back to catalog

STARLINK-31695

NORAD 59376 · 2024-062C

PAYLOAD ACTIVE UNKNOWN

§ Identity

Operator
Country
US
Launch date
2024-04-02
Launch site
AFWTR
Launch vehicle
Mass (kg)
RCS (m²)

Purposes: comms

External: N2YO · Heavens-Above · Gunter

§ Orbital elements

Epoch: 2026-05-25T01:23:23.637408Z

Period
94.11 min
Inclination
53.1609°
Eccentricity
0.0001292
Mean motion
15.30196015 rev/d
Perigee alt
474.3 km
Apogee alt
476.1 km
Semi-major
6,853.4 km
B*
5.6808e-5
RAAN
260.9471°
Arg perigee
85.8410°
Mean anomaly
274.2738°
Rev number
12,132

§ Raw data

STARLINK-316951 59376U 24062C   26145.05791247  .00001323  00000+0  56808-4 0  99962 59376  53.1609 260.9471 0001292  85.8410 274.2738 15.30196015121328

JSON: /api/v1/satellites/59376 · /tle

For live sub-satellite position, see the globe view (requires WebGL).

§ Visibility from observer

Set your observer location to see the next 7 days of passes ≥ 10°. The values pass through the URL so the page stays shareable.

No JS? Fill the form by hand. The geolocation button needs JavaScript.